TimeEST,TemperatureF,Dew PointF,Humidity,Sea Level PressureIn,VisibilityMPH,Wind Direction,Wind SpeedMPH,Gust SpeedMPH,PrecipitationIn,Events,Conditions,WindDirDegrees,DateUTC
12:53 AM,68.0,66.0,93,30.06,10.0,Calm,Calm,-,N/A,,Clear,0,2014-02-03 05:53:00
1:53 AM,66.9,66.0,97,30.06,8.0,Calm,Calm,-,N/A,,Clear,0,2014-02-03 06:53:00
2:53 AM,66.9,66.0,97,30.05,7.0,ESE,3.5,-,N/A,,Clear,110,2014-02-03 07:53:00
3:27 AM,66.9,66.0,97,30.04,7.0,ESE,3.5,-,N/A,,Mostly Cloudy,110,2014-02-03 08:27:00
3:35 AM,66.9,66.0,97,30.04,7.0,ESE,4.6,-,N/A,,Scattered Clouds,110,2014-02-03 08:35:00
3:53 AM,68.0,66.9,96,30.05,7.0,East,3.5,-,N/A,,Mostly Cloudy,100,2014-02-03 08:53:00
4:34 AM,66.9,66.9,100,30.05,1.8,Calm,Calm,-,N/A,,Overcast,0,2014-02-03 09:34:00
4:53 AM,66.9,66.0,97,30.06,0.5,Calm,Calm,-,N/A,Fog,Fog,0,2014-02-03 09:53:00
5:09 AM,66.0,64.9,96,30.05,1.0,Calm,Calm,-,N/A,,Overcast,0,2014-02-03 10:09:00
5:21 AM,66.9,66.0,97,30.05,0.5,Calm,Calm,-,N/A,Fog,Fog,0,2014-02-03 10:21:00
5:31 AM,66.9,66.0,97,30.05,0.2,Calm,Calm,-,N/A,Fog,Fog,0,2014-02-03 10:31:00
5:39 AM,64.9,64.9,100,30.06,0.2,Calm,Calm,-,N/A,Fog,Fog,0,2014-02-03 10:39:00
5:53 AM,66.0,66.0,100,30.07,0.2,Calm,Calm,-,N/A,Fog,Fog,0,2014-02-03 10:53:00
6:13 AM,66.0,64.9,96,30.07,0.5,East,3.5,-,N/A,Fog,Fog,80,2014-02-03 11:13:00
6:45 AM,66.0,64.9,96,30.07,0.8,East,3.5,-,N/A,,Overcast,90,2014-02-03 11:45:00
6:53 AM,66.0,66.0,100,30.08,0.5,Calm,Calm,-,N/A,Fog,Fog,0,2014-02-03 11:53:00
7:11 AM,66.0,66.0,100,30.07,0.2,Calm,Calm,-,N/A,Fog,Fog,0,2014-02-03 12:11:00
7:53 AM,66.9,66.9,100,30.09,0.2,East,3.5,-,N/A,Fog,Fog,90,2014-02-03 12:53:00
8:53 AM,69.1,69.1,100,30.11,0.5,East,3.5,-,N/A,Fog,Fog,100,2014-02-03 13:53:00
9:04 AM,70.0,69.1,97,30.11,2.0,ESE,4.6,-,N/A,,Overcast,110,2014-02-03 14:04:00
9:27 AM,71.1,71.1,100,30.11,10.0,ESE,5.8,-,N/A,,Mostly Cloudy,110,2014-02-03 14:27:00
9:53 AM,73.0,71.1,93,30.12,10.0,ESE,4.6,-,N/A,,Scattered Clouds,120,2014-02-03 14:53:00
10:32 AM,79.0,71.1,77,30.11,10.0,South,6.9,-,N/A,,Mostly Cloudy,180,2014-02-03 15:32:00
10:39 AM,79.0,71.1,77,30.11,10.0,South,6.9,-,N/A,,Scattered Clouds,190,2014-02-03 15:39:00
10:46 AM,79.0,70.0,74,30.11,10.0,South,9.2,-,N/A,,Mostly Cloudy,170,2014-02-03 15:46:00
10:53 AM,80.1,70.0,71,30.12,10.0,SSE,10.4,-,N/A,,Mostly Cloudy,160,2014-02-03 15:53:00
11:39 AM,82.0,69.1,65,30.10,10.0,South,6.9,-,N/A,,Mostly Cloudy,190,2014-02-03 16:39:00
11:53 AM,82.9,69.1,63,30.10,10.0,SSW,9.2,-,N/A,,Scattered Clouds,210,2014-02-03 16:53:00
12:53 PM,82.0,68.0,62,30.08,10.0,SW,12.7,-,N/A,,Scattered Clouds,230,2014-02-03 17:53:00
1:53 PM,82.9,68.0,60,30.05,10.0,SW,8.1,-,N/A,,Partly Cloudy,220,2014-02-03 18:53:00
2:53 PM,82.9,69.1,63,30.03,10.0,SW,9.2,-,N/A,,Partly Cloudy,230,2014-02-03 19:53:00
3:53 PM,82.0,69.1,65,30.03,10.0,West,10.4,-,N/A,,Scattered Clouds,270,2014-02-03 20:53:00
4:53 PM,81.0,69.1,67,30.04,10.0,WSW,8.1,-,N/A,,Clear,250,2014-02-03 21:53:00
5:53 PM,78.1,68.0,71,30.04,10.0,WSW,6.9,-,N/A,,Clear,250,2014-02-03 22:53:00
6:53 PM,75.9,70.0,82,30.05,10.0,SW,3.5,-,N/A,,Clear,220,2014-02-03 23:53:00
7:53 PM,73.9,70.0,87,30.07,10.0,Calm,Calm,-,N/A,,Clear,0,2014-02-04 00:53:00
8:53 PM,72.0,70.0,93,30.08,10.0,Calm,Calm,-,N/A,,Clear,0,2014-02-04 01:53:00
9:53 PM,70.0,66.9,90,30.09,9.0,NE,3.5,-,N/A,,Partly Cloudy,50,2014-02-04 02:53:00
10:53 PM,72.0,70.0,93,30.11,10.0,Calm,Calm,-,N/A,,Overcast,0,2014-02-04 03:53:00
11:02 PM,72.0,70.0,93,30.10,10.0,Calm,Calm,-,N/A,,Overcast,0,2014-02-04 04:02:00
11:22 PM,72.0,70.0,93,30.10,10.0,ENE,3.5,-,N/A,,Overcast,70,2014-02-04 04:22:00
11:53 PM,72.0,70.0,93,30.10,10.0,Calm,Calm,-,N/A,,Mostly Cloudy,0,2014-02-04 04:53:00